TimeBST,TemperatureF,Dew PointF,Humidity,Sea Level PressureIn,VisibilityMPH,Wind Direction,Wind SpeedMPH,Gust SpeedMPH,PrecipitationIn,Events,Conditions,WindDirDegrees,DateUTC
12:20 AM,60.8,60.8,100,29.62,6.2,SW,3.5,-,N/A,,Mostly Cloudy,230,2013-08-01 23:20:00
12:50 AM,60.8,59.0,94,29.62,6.2,Variable,2.3,-,N/A,,Mostly Cloudy,0,2013-08-01 23:50:00
1:20 AM,60.8,59.0,94,29.59,4.3,Variable,3.5,-,N/A,,Unknown,0,2013-08-02 00:20:00
1:50 AM,64.4,60.8,88,29.59,6.2,SSE,5.8,-,N/A,,Unknown,150,2013-08-02 00:50:00
2:20 AM,64.4,60.8,88,29.59,-9999.0,SW,6.9,-,N/A,,Clear,220,2013-08-02 01:20:00
2:50 AM,64.4,59.0,83,29.59,6.2,SW,2.3,-,N/A,,Partly Cloudy,220,2013-08-02 01:50:00
3:20 AM,64.4,59.0,83,29.56,6.2,South,3.5,-,N/A,,Mostly Cloudy,190,2013-08-02 02:20:00
3:50 AM,62.6,59.0,88,29.56,6.2,SSE,4.6,-,N/A,,Partly Cloudy,160,2013-08-02 02:50:00
4:20 AM,62.6,59.0,88,29.56,-9999.0,SW,6.9,-,N/A,,Clear,220,2013-08-02 03:20:00
4:50 AM,62.6,59.0,88,29.56,6.2,Variable,3.5,-,N/A,,Partly Cloudy,0,2013-08-02 03:50:00
5:20 AM,62.6,59.0,88,29.56,6.2,Variable,4.6,-,N/A,,Scattered Clouds,0,2013-08-02 04:20:00
5:50 AM,64.4,59.0,83,29.56,6.2,SSW,13.8,-,N/A,,Partly Cloudy,200,2013-08-02 04:50:00
6:20 AM,64.4,60.8,88,29.53,6.2,SSW,12.7,-,N/A,,Scattered Clouds,210,2013-08-02 05:20:00
6:50 AM,64.4,60.8,88,29.53,6.2,South,8.1,-,N/A,,Mostly Cloudy,190,2013-08-02 05:50:00
7:20 AM,66.2,60.8,83,29.56,6.2,South,6.9,-,N/A,Rain,Light Rain,180,2013-08-02 06:20:00
7:50 AM,66.2,60.8,83,29.53,6.2,WSW,4.6,-,N/A,,Mostly Cloudy,240,2013-08-02 06:50:00
8:20 AM,66.2,60.8,83,29.56,6.2,South,9.2,-,N/A,,Mostly Cloudy,190,2013-08-02 07:20:00
8:50 AM,66.2,59.0,78,29.56,6.2,SW,9.2,-,N/A,,Mostly Cloudy,230,2013-08-02 07:50:00
9:20 AM,68.0,59.0,73,29.56,6.2,Variable,9.2,-,N/A,,Scattered Clouds,0,2013-08-02 08:20:00
9:50 AM,69.8,57.2,64,29.56,6.2,SSW,17.3,31.1,N/A,,Scattered Clouds,210,2013-08-02 08:50:00
10:20 AM,71.6,57.2,60,29.56,6.2,SSW,24.2,-,N/A,,Scattered Clouds,200,2013-08-02 09:20:00
10:50 AM,69.8,57.2,64,29.56,6.2,SSW,23.0,-,N/A,,Scattered Clouds,210,2013-08-02 09:50:00
11:20 AM,71.6,55.4,57,29.56,6.2,SSW,19.6,-,N/A,,Mostly Cloudy,210,2013-08-02 10:20:00
11:50 AM,71.6,55.4,57,29.56,6.2,SSW,19.6,33.4,N/A,,Scattered Clouds,210,2013-08-02 10:50:00
12:20 PM,71.6,53.6,53,29.56,6.2,SSW,19.6,-,N/A,,Scattered Clouds,210,2013-08-02 11:20:00
12:50 PM,73.4,53.6,50,29.56,6.2,SSW,17.3,28.8,N/A,,Scattered Clouds,210,2013-08-02 11:50:00
1:20 PM,73.4,55.4,53,29.56,6.2,SSW,18.4,-,N/A,,Mostly Cloudy,200,2013-08-02 12:20:00
1:50 PM,71.6,53.6,53,29.59,6.2,SSW,18.4,-,N/A,,Scattered Clouds,200,2013-08-02 12:50:00
2:20 PM,73.4,53.6,50,29.59,6.2,SSW,19.6,-,N/A,,Scattered Clouds,200,2013-08-02 13:20:00
2:50 PM,73.4,53.6,50,29.59,6.2,SSW,16.1,27.6,N/A,,Partly Cloudy,200,2013-08-02 13:50:00
3:20 PM,73.4,53.6,50,29.59,6.2,SSW,17.3,-,N/A,,Scattered Clouds,200,2013-08-02 14:20:00
3:50 PM,71.6,53.6,53,29.59,6.2,South,18.4,-,N/A,,Scattered Clouds,190,2013-08-02 14:50:00
4:20 PM,71.6,51.8,50,29.59,6.2,SSW,19.6,-,N/A,,Partly Cloudy,200,2013-08-02 15:20:00
4:50 PM,71.6,51.8,50,29.59,6.2,SSW,17.3,-,N/A,,Partly Cloudy,200,2013-08-02 15:50:00
5:20 PM,71.6,51.8,50,29.59,6.2,SSW,17.3,-,N/A,,Partly Cloudy,210,2013-08-02 16:20:00
5:50 PM,69.8,51.8,53,29.59,6.2,South,18.4,29.9,N/A,,Partly Cloudy,190,2013-08-02 16:50:00
6:20 PM,69.8,51.8,53,29.59,6.2,South,17.3,-,N/A,,Partly Cloudy,190,2013-08-02 17:20:00
6:50 PM,68.0,51.8,56,29.59,6.2,South,17.3,-,N/A,,Partly Cloudy,190,2013-08-02 17:50:00
7:20 PM,68.0,53.6,60,29.59,6.2,SSW,16.1,-,N/A,,Partly Cloudy,200,2013-08-02 18:20:00
7:50 PM,66.2,53.6,64,29.59,6.2,South,15.0,-,N/A,,Partly Cloudy,190,2013-08-02 18:50:00
8:20 PM,66.2,53.6,64,29.59,6.2,SSW,15.0,-,N/A,,Partly Cloudy,200,2013-08-02 19:20:00
8:50 PM,64.4,53.6,68,29.59,6.2,South,15.0,-,N/A,,Partly Cloudy,190,2013-08-02 19:50:00
9:20 PM,62.6,53.6,72,29.59,6.2,South,11.5,-,N/A,,Partly Cloudy,180,2013-08-02 20:20:00
9:50 PM,62.6,53.6,72,29.62,6.2,South,10.4,-,N/A,,Partly Cloudy,180,2013-08-02 20:50:00
10:20 PM,60.8,53.6,77,29.62,6.2,South,6.9,-,N/A,,Scattered Clouds,170,2013-08-02 21:20:00
10:50 PM,60.8,53.6,77,29.59,6.2,South,11.5,-,N/A,,Scattered Clouds,190,2013-08-02 21:50:00
11:20 PM,60.8,53.6,77,29.59,6.2,South,12.7,-,N/A,,Unknown,180,2013-08-02 22:20:00
11:50 PM,60.8,53.6,77,29.59,-9999.0,South,11.5,-,N/A,,Clear,190,2013-08-02 22:50:00